ITY901 EPKT-EDLW

Flight info

Callsign ITY901
Flight time N/A
Altitude 34000
Route OMFOL T738 EKSEK Z348 NAROX/N0445F380 Z348 RENDO DCT KUMER DCT ABILU Z850 ADEMI
Aircraft A320/M-SDE3FGHIRWY/LB1

Departure

Time 2026-05-01 08:10
Airport Katowice Wojciech Korfanty International Airport (EPKT)

Arrival

Time N/A
Airport Dortmund Airport (EDLW)
Time Latitude Longitude Altitude Speed Heading
2026-05-01 07:35 50.47183 19.07408 999 ft 0 kts 180°
2026-05-01 07:48 50.47184 19.07408 998 ft 0 kts 180°
2026-05-01 08:00 50.47186 19.07408 999 ft 2 kts 180°
2026-05-01 08:01 50.47221 19.07406 999 ft 1 kts 161°
2026-05-01 08:01 50.47227 19.07404 998 ft 1 kts 140°
2026-05-01 08:01 50.47232 19.07399 1002 ft 1 kts 111°
2026-05-01 08:02 50.47235 19.07382 998 ft 1 kts 94°
2026-05-01 08:02 50.47235 19.07374 998 ft 1 kts 91°
2026-05-01 08:03 50.47235 19.07364 998 ft 0 kts 91°
2026-05-01 08:04 50.47235 19.07368 998 ft 3 kts 91°
2026-05-01 08:04 50.47234 19.07757 998 ft 25 kts 90°
2026-05-01 08:05 50.47232 19.08338 1001 ft 28 kts 90°
2026-05-01 08:05 50.47232 19.08650 998 ft 27 kts 90°
2026-05-01 08:05 50.47232 19.08929 998 ft 23 kts 90°
2026-05-01 08:06 50.47231 19.09365 1004 ft 18 kts 91°
2026-05-01 08:06 50.47230 19.09730 1002 ft 15 kts 90°
2026-05-01 08:07 50.47240 19.10026 999 ft 12 kts 60°
2026-05-01 08:07 50.47327 19.10208 998 ft 9 kts 52°
2026-05-01 08:08 50.47364 19.10282 1000 ft 8 kts 52°
2026-05-01 08:08 50.47506 19.10449 1002 ft 15 kts 359°
2026-05-01 08:09 50.47594 19.10257 998 ft 0 kts 269°
2026-05-01 08:09 50.47595 19.09978 999 ft 64 kts 271°
2026-05-01 08:10 50.47600 19.07275 1119 ft 166 kts 272°
2026-05-01 08:10 50.47573 19.03591 2523 ft 181 kts 274°
2026-05-01 08:11 50.47594 18.99043 3448 ft 233 kts 273°
2026-05-01 08:11 50.47622 18.93547 4997 ft 262 kts 273°
2026-05-01 08:12 50.47576 18.87712 6927 ft 272 kts 273°
2026-05-01 08:12 50.47534 18.84701 7793 ft 279 kts 273°
2026-05-01 08:12 50.47441 18.78473 9512 ft 292 kts 273°
2026-05-01 08:13 50.47395 18.75246 10360 ft 299 kts 274°
2026-05-01 08:13 50.47352 18.71893 10835 ft 319 kts 274°
2026-05-01 08:13 50.47262 18.64406 11458 ft 365 kts 273°
2026-05-01 08:14 50.47201 18.60374 12086 ft 374 kts 273°
2026-05-01 08:14 50.47133 18.56263 12820 ft 379 kts 272°
2026-05-01 08:14 50.47048 18.52096 13568 ft 385 kts 272°
2026-05-01 08:14 50.46946 18.47864 14297 ft 390 kts 272°
2026-05-01 08:15 50.46833 18.43579 14949 ft 395 kts 272°
2026-05-01 08:15 50.46590 18.34833 16207 ft 405 kts 272°
2026-05-01 08:15 50.46470 18.30392 16828 ft 410 kts 272°
2026-05-01 08:16 50.46355 18.25951 17437 ft 415 kts 272°
2026-05-01 08:16 50.46236 18.21342 18051 ft 420 kts 272°
2026-05-01 08:16 50.46114 18.16743 18642 ft 424 kts 272°
2026-05-01 08:16 50.45988 18.12089 19155 ft 428 kts 272°
2026-05-01 08:17 50.45860 18.07458 19667 ft 432 kts 272°
2026-05-01 08:17 50.45729 18.02731 20194 ft 436 kts 272°
2026-05-01 08:17 50.45593 17.97960 20713 ft 440 kts 272°
2026-05-01 08:17 50.45452 17.93134 21223 ft 443 kts 272°
2026-05-01 08:18 50.45322 17.88288 21718 ft 445 kts 275°
2026-05-01 08:18 50.46189 17.78778 22682 ft 438 kts 294°
2026-05-01 08:19 50.48549 17.70026 23657 ft 437 kts 301°
2026-05-01 08:19 50.49819 17.65657 24097 ft 441 kts 301°
2026-05-01 08:19 50.51092 17.61259 24497 ft 443 kts 301°
2026-05-01 08:19 50.52366 17.56834 24904 ft 446 kts 301°
2026-05-01 08:20 50.53640 17.52374 25306 ft 448 kts 301°
2026-05-01 08:20 50.54917 17.47885 25704 ft 450 kts 301°
2026-05-01 08:20 50.56198 17.43372 26059 ft 453 kts 300°
2026-05-01 08:20 50.57484 17.38829 26463 ft 455 kts 300°
2026-05-01 08:21 50.58338 17.35809 26720 ft 457 kts 300°
2026-05-01 08:21 50.60052 17.29737 27215 ft 460 kts 300°
2026-05-01 08:21 50.61355 17.25138 27573 ft 462 kts 300°
2026-05-01 08:21 50.62666 17.20504 27925 ft 464 kts 300°
2026-05-01 08:22 50.63980 17.15855 28277 ft 466 kts 300°
2026-05-01 08:22 50.65299 17.11178 28616 ft 468 kts 300°
2026-05-01 08:22 50.66193 17.07995 28848 ft 470 kts 300°
2026-05-01 08:22 50.67497 17.03332 29140 ft 472 kts 300°
2026-05-01 08:23 50.68835 16.98520 29496 ft 474 kts 299°
2026-05-01 08:23 50.70142 16.93815 29845 ft 475 kts 299°
2026-05-01 08:23 50.71453 16.89047 30326 ft 473 kts 299°
2026-05-01 08:23 50.72751 16.84275 30751 ft 472 kts 299°
2026-05-01 08:24 50.74035 16.79511 31127 ft 471 kts 299°
2026-05-01 08:24 50.75312 16.74748 31505 ft 470 kts 298°
2026-05-01 08:24 50.76583 16.69998 31895 ft 469 kts 298°
2026-05-01 08:24 50.77853 16.65246 32275 ft 469 kts 299°
2026-05-01 08:25 50.79118 16.60504 32626 ft 468 kts 298°
2026-05-01 08:25 50.80382 16.55778 33026 ft 466 kts 298°
2026-05-01 08:25 50.81643 16.51065 33421 ft 465 kts 298°
2026-05-01 08:25 50.82897 16.46358 33810 ft 464 kts 298°
2026-05-01 08:26 50.84149 16.41649 34206 ft 463 kts 298°
2026-05-01 08:26 50.85398 16.36950 34382 ft 463 kts 298°
2026-05-01 08:26 50.86647 16.32248 34411 ft 463 kts 298°
2026-05-01 08:27 50.89123 16.22850 34410 ft 463 kts 298°
2026-05-01 08:27 50.91585 16.13443 34418 ft 461 kts 298°
2026-05-01 08:28 50.94554 16.04561 34406 ft 452 kts 309°
2026-05-01 08:28 50.98046 15.96356 34413 ft 452 kts 309°
2026-05-01 08:29 51.01551 15.88049 34413 ft 452 kts 309°
2026-05-01 08:29 51.05039 15.79731 34410 ft 452 kts 309°
2026-05-01 08:30 51.08523 15.71417 34394 ft 451 kts 308°
2026-05-01 08:30 51.11880 15.62958 34403 ft 456 kts 301°
2026-05-01 08:31 51.13828 15.53341 34407 ft 465 kts 285°
2026-05-01 08:31 51.15096 15.43165 34408 ft 465 kts 285°
2026-05-01 08:32 51.16358 15.33126 34399 ft 465 kts 285°
2026-05-01 08:32 51.17616 15.23011 34409 ft 465 kts 285°
2026-05-01 08:33 51.18867 15.12887 34414 ft 465 kts 285°
2026-05-01 08:33 51.20103 15.02764 34418 ft 465 kts 285°
2026-05-01 08:34 51.21096 14.92536 34426 ft 467 kts 281°
2026-05-01 08:34 51.21740 14.82209 34416 ft 468 kts 279°
2026-05-01 08:35 51.22348 14.71884 34425 ft 467 kts 279°
2026-05-01 08:35 51.23031 14.61567 34432 ft 466 kts 280°
2026-05-01 08:36 51.23743 14.51288 34427 ft 466 kts 280°
2026-05-01 08:36 51.24450 14.41000 34412 ft 466 kts 279°
2026-05-01 08:37 51.25136 14.30720 34418 ft 466 kts 279°
2026-05-01 08:37 51.25796 14.20479 34429 ft 466 kts 279°
2026-05-01 08:38 51.26450 14.10190 34426 ft 466 kts 279°
2026-05-01 08:38 51.27099 13.99890 34446 ft 466 kts 279°
2026-05-01 08:39 51.27737 13.89602 34450 ft 466 kts 279°
2026-05-01 08:39 51.28516 13.79348 34453 ft 464 kts 282°
2026-05-01 08:40 51.30061 13.64094 34439 ft 464 kts 283°
2026-05-01 08:40 51.31045 13.53894 34448 ft 464 kts 282°
2026-05-01 08:41 51.31964 13.43674 34436 ft 464 kts 281°
2026-05-01 08:41 51.32859 13.33459 34442 ft 463 kts 281°
2026-05-01 08:42 51.33751 13.23265 34448 ft 463 kts 281°
2026-05-01 08:42 51.34642 13.13142 34447 ft 462 kts 281°
2026-05-01 08:43 51.35540 13.02958 34445 ft 462 kts 281°
2026-05-01 08:43 51.36422 12.92762 34439 ft 462 kts 281°
2026-05-01 08:44 51.37286 12.82584 34449 ft 461 kts 281°
2026-05-01 08:44 51.38142 12.72403 34450 ft 461 kts 281°
2026-05-01 08:45 51.38984 12.62242 34450 ft 460 kts 281°
2026-05-01 08:45 51.39827 12.52075 34441 ft 461 kts 280°
2026-05-01 08:46 51.40662 12.41908 34457 ft 460 kts 280°
2026-05-01 08:46 51.41480 12.31746 34464 ft 460 kts 280°
2026-05-01 08:47 51.42291 12.21592 34462 ft 459 kts 280°
2026-05-01 08:47 51.43098 12.11437 34449 ft 459 kts 280°
2026-05-01 08:48 51.43882 12.01349 34441 ft 459 kts 279°
2026-05-01 08:48 51.44664 11.91193 34450 ft 459 kts 279°
2026-05-01 08:49 51.45439 11.81035 34451 ft 459 kts 279°
2026-05-01 08:49 51.46207 11.70875 34453 ft 459 kts 279°
2026-05-01 08:50 51.46967 11.60709 34458 ft 459 kts 279°
2026-05-01 08:50 51.47716 11.50550 34456 ft 458 kts 278°
2026-05-01 08:51 51.48453 11.40389 34454 ft 458 kts 278°
2026-05-01 08:51 51.49187 11.30228 34454 ft 458 kts 278°
2026-05-01 08:52 51.49912 11.20068 34447 ft 458 kts 278°
2026-05-01 08:52 51.50617 11.09965 34437 ft 458 kts 278°
2026-05-01 08:53 51.51306 10.99823 34447 ft 457 kts 278°
2026-05-01 08:53 51.51998 10.89682 34451 ft 456 kts 278°
2026-05-01 08:54 51.52693 10.79555 34445 ft 456 kts 278°
2026-05-01 08:54 51.53369 10.69434 34442 ft 455 kts 277°
2026-05-01 08:55 51.53602 10.59267 34433 ft 457 kts 268°
2026-05-01 08:55 51.53208 10.49060 34441 ft 457 kts 268°
2026-05-01 08:56 51.52828 10.38944 34446 ft 457 kts 268°
2026-05-01 08:56 51.52446 10.28763 34447 ft 456 kts 268°
2026-05-01 08:57 51.52055 10.18599 34442 ft 456 kts 268°
2026-05-01 08:57 51.51642 10.08438 34437 ft 455 kts 268°
2026-05-01 08:58 51.51221 9.98290 34441 ft 455 kts 268°
2026-05-01 08:58 51.50796 9.88169 34440 ft 454 kts 268°
2026-05-01 08:59 51.50363 9.78055 34444 ft 454 kts 268°
2026-05-01 08:59 51.50141 9.72973 34264 ft 454 kts 268°
2026-05-01 08:59 51.49921 9.67983 33995 ft 454 kts 268°
2026-05-01 09:00 51.49696 9.62907 33704 ft 455 kts 268°
2026-05-01 09:00 51.49469 9.57841 33435 ft 455 kts 268°
2026-05-01 09:00 51.49238 9.52774 33161 ft 456 kts 268°
2026-05-01 09:00 51.49006 9.47703 32669 ft 456 kts 268°
2026-05-01 09:01 51.48772 9.42584 31465 ft 464 kts 268°
2026-05-01 09:01 51.48534 9.37388 30332 ft 469 kts 268°
2026-05-01 09:01 51.48286 9.32127 29054 ft 474 kts 267°
2026-05-01 09:01 51.48035 9.26838 27777 ft 478 kts 267°
2026-05-01 09:02 51.47779 9.21492 26470 ft 483 kts 266°
2026-05-01 09:02 51.47519 9.16126 25591 ft 479 kts 266°
2026-05-01 09:02 51.47256 9.10821 24704 ft 475 kts 266°
2026-05-01 09:02 51.46991 9.05550 23620 ft 474 kts 266°
2026-05-01 09:03 51.46722 9.00264 22358 ft 477 kts 265°
2026-05-01 09:03 51.46455 8.94993 21588 ft 470 kts 265°
2026-05-01 09:03 51.46192 8.89798 20794 ft 465 kts 265°
2026-05-01 09:03 51.45930 8.84664 20029 ft 460 kts 265°
2026-05-01 09:04 51.45669 8.79576 19284 ft 454 kts 265°
2026-05-01 09:04 51.45416 8.74654 18575 ft 432 kts 265°
2026-05-01 09:04 51.45166 8.69883 17894 ft 427 kts 265°
2026-05-01 09:04 51.44915 8.65171 17266 ft 422 kts 264°
2026-05-01 09:05 51.44665 8.60509 16679 ft 417 kts 264°
2026-05-01 09:05 51.44417 8.55891 16086 ft 414 kts 264°
2026-05-01 09:05 51.44172 8.51321 15502 ft 410 kts 264°
2026-05-01 09:05 51.43930 8.46835 14910 ft 408 kts 264°
2026-05-01 09:06 51.43682 8.42317 14290 ft 406 kts 264°
2026-05-01 09:06 51.43432 8.37823 13615 ft 404 kts 264°
2026-05-01 09:06 51.43183 8.33351 12944 ft 401 kts 264°
2026-05-01 09:06 51.42934 8.28908 12257 ft 399 kts 264°
2026-05-01 09:07 51.42685 8.24485 11547 ft 398 kts 263°
2026-05-01 09:07 51.42439 8.20132 11296 ft 384 kts 263°
2026-05-01 09:07 51.42205 8.15972 11179 ft 366 kts 263°
2026-05-01 09:07 51.42052 8.13273 11102 ft 356 kts 263°
2026-05-01 09:08 51.41836 8.09484 10967 ft 332 kts 262°
2026-05-01 09:08 51.41630 8.05909 10651 ft 315 kts 262°
2026-05-01 09:08 51.41431 8.02457 10277 ft 307 kts 264°